Location: Bathurst
(33.4193°S, 149.5775°E)
Time: 09:46:13
(UTC+10:00)

Vanguard 1 Rocket - Pass Details

Date: 19 June 2021
Orbit: 650 x 4226 km, 34.3° (Epoch: 02 August)

Event Time Altitude Azimuth Distance (km) Brightness Sun altitude
Rises 07:26:51 0° 316° (NW) 8,458 12.2 3.2°
Reaches altitude 10° 07:33:13 10° 319° (NW) 7,329 11.9 4.3°
Maximum altitude 07:55:56 53° 28° (NNE) 3,551 11.1 8.2°
Drops below altitude 10° 08:09:05 10° 100° (E) 4,510 11.7 10.5°
Sets 08:11:55 0° 104° (ESE) 5,146 11.8 10.9°
